Hourly Data Report for October 30, 2015

All times are specified in Local Standard Time (LST). Add 1 hour to adjust for Daylight Saving Time where and when it is observed.

PENTICTON A
BRITISH COLUMBIA

49°27'45.000" N
119°36'08.000" W
344.40 m
1126146
71889
YYF

Download Data

Hourly Data (October 2015)
Hourly Data Report for October 30, 2015
Temp Definition
°C
Dew Point Temp Definition
°C
Rel Hum Definition
%
Wind Dir Definition
10's deg

Wind Spd Definition
km/h
Visibility Definition
km
Stn Press Definition
kPa
Hmdx Definition


Wind Chill Definition


Weather Definition


TIME
00:00 Legend Double Dagger 10.5 6.7 77 16 17 24.1 96.91     LegendNANA
01:00 Legend Double Dagger 10.6 6.8 77 18 21 24.1 96.86     Cloudy
02:00 Legend Double Dagger 10.2 6.9 80 19 30 24.1 96.74     LegendNANA
03:00 Legend Double Dagger 10.3 6.5 77 17 20 24.1 96.60     LegendNANA
04:00 Legend Double Dagger 10.1 6.7 79 17 25 24.1 96.51     Cloudy
05:00 Legend Double Dagger 10.3 6.3 76 16 27 24.1 96.37     LegendNANA
06:00 Legend Double Dagger 10.1 5.9 75 15 23 24.1 96.22     LegendNANA
07:00 Legend Double Dagger 10.6 6.0 73 18 25 24.1 96.07     Rain
08:00 Legend Double Dagger 10.5 6.5 76 18 30 24.1 95.97     Rain
09:00 Legend Double Dagger 11.7 6.5 70 20 32 24.1 95.91     Rain
10:00 Legend Double Dagger 11.8 8.3 79 18 35 24.1 95.93     Mostly Cloudy
11:00 Legend Double Dagger 12.6 7.9 73 19 26 24.1 96.03     LegendNANA
12:00 Legend Double Dagger 12.3 8.6 78 19 25 24.1 96.03     Rain
13:00 Legend Double Dagger 12.0 8.9 81 19 27 24.1 96.06     Rain
14:00 Legend Double Dagger 12.6 8.9 78 18 32 24.1 96.07     LegendNANA
15:00 Legend Double Dagger 12.6 9.5 81 17 30 24.1 96.17     LegendNANA
16:00 Legend Double Dagger 13.0 8.5 74 17 16 24.1 96.23     Cloudy
17:00 Legend Double Dagger 12.5 9.0 79 14 17 24.1 96.32     LegendNANA
18:00 Legend Double Dagger 12.8 6.2 64 18 18 24.1 96.45     LegendNANA
19:00 Legend Double Dagger 12.9 6.1 63 20 11 24.1 96.49     Cloudy
20:00 Legend Double Dagger 10.2 5.0 70 35 10 24.1 96.52     LegendNANA
21:00 Legend Double Dagger 8.9 3.8 70 33 8 24.1 96.51     LegendNANA
22:00 Legend Double Dagger 9.9 2.5 60 6 7 24.1 96.47     Mostly Cloudy
23:00                    

Notes on Data Quality.

Legend

  • E = Estimated
  • M = Missing
  • NA = Not Available
  • ‡ = Partner data that is not subject to review by the National Climate Archives
Date modified: